TimeEDT,TemperatureF,Dew PointF,Humidity,Sea Level PressureIn,VisibilityMPH,Wind Direction,Wind SpeedMPH,Gust SpeedMPH,PrecipitationIn,Events,Conditions,WindDirDegrees,DateUTC
12:53 AM,73.0,71.1,93,29.80,10.0,West,5.8,-,N/A,,Clear,270,2011-10-01 04:53:00
1:53 AM,73.0,70.0,90,29.80,10.0,West,3.5,-,N/A,,Clear,280,2011-10-01 05:53:00
2:53 AM,72.0,70.0,93,29.79,10.0,Calm,Calm,-,N/A,,Partly Cloudy,0,2011-10-01 06:53:00
3:53 AM,73.0,69.1,87,29.79,10.0,WNW,5.8,-,N/A,,Mostly Cloudy,300,2011-10-01 07:53:00
4:53 AM,71.6,68.0,88,29.79,10.0,Calm,Calm,-,N/A,,Clear,0,2011-10-01 08:53:00
5:53 AM,70.0,66.9,90,29.80,9.0,West,5.8,-,N/A,,Clear,270,2011-10-01 09:53:00
6:53 AM,70.0,66.9,90,29.81,9.0,Calm,Calm,-,N/A,,Clear,0,2011-10-01 10:53:00
7:53 AM,71.6,66.2,83,29.83,8.0,NW,3.5,-,N/A,,Clear,320,2011-10-01 11:53:00
8:53 AM,75.0,68.0,79,29.85,9.0,NNW,6.9,-,N/A,,Clear,330,2011-10-01 12:53:00
9:53 AM,80.1,69.1,69,29.86,10.0,North,10.4,-,N/A,,Clear,350,2011-10-01 13:53:00
10:53 AM,84.0,69.1,61,29.87,10.0,North,6.9,-,N/A,,Clear,10,2011-10-01 14:53:00
11:53 AM,84.9,68.0,57,29.88,10.0,NNE,8.1,-,N/A,,Clear,20,2011-10-01 15:53:00
12:53 PM,84.0,68.0,58,29.88,10.0,North,11.5,-,N/A,,Clear,350,2011-10-01 16:53:00
1:53 PM,84.9,66.9,55,29.86,10.0,North,11.5,20.7,N/A,,Clear,350,2011-10-01 17:53:00
2:53 PM,84.9,66.0,53,29.85,10.0,North,12.7,-,N/A,,Partly Cloudy,360,2011-10-01 18:53:00
3:53 PM,82.9,66.0,56,29.83,10.0,NNE,12.7,19.6,N/A,,Clear,30,2011-10-01 19:53:00
4:53 PM,82.9,66.0,56,29.84,10.0,NNE,9.2,19.6,N/A,,Clear,20,2011-10-01 20:53:00
5:53 PM,81.0,66.0,60,29.85,10.0,North,5.8,16.1,N/A,,Clear,10,2011-10-01 21:53:00
6:53 PM,78.1,64.0,62,29.86,10.0,North,9.2,-,N/A,,Clear,10,2011-10-01 22:53:00
7:53 PM,75.9,63.0,64,29.88,10.0,North,9.2,-,N/A,,Clear,10,2011-10-01 23:53:00
8:53 PM,75.2,62.6,65,29.90,10.0,North,6.9,18.4,N/A,,Clear,10,2011-10-02 00:53:00
9:53 PM,75.0,62.1,64,29.92,10.0,North,10.4,-,N/A,,Clear,10,2011-10-02 01:53:00
10:53 PM,75.0,60.1,60,29.94,10.0,North,8.1,-,N/A,,Partly Cloudy,10,2011-10-02 02:53:00
11:53 PM,73.9,59.0,59,29.95,10.0,North,8.1,-,N/A,,Partly Cloudy,10,2011-10-02 03:53:00